Date,TemperatureHighF,TemperatureAvgF,TemperatureLowF,DewpointHighF,DewpointAvgF,DewpointLowF,HumidityHigh,HumidityAvg,HumidityLow,PressureMaxIn,PressureMinIn,WindSpeedMaxMPH,WindSpeedAvgMPH,GustSpeedMaxMPH,PrecipitationSumIn
2013-1-1,35.3,31.8,22.0,29.2,24.1,13.5,79,73,64,30.05,29.88,6,-822,13,0.00
2013-1-2,28.7,22.8,15.2,17.2,14.0,9.1,80,69,59,30.23,30.03,7,-643,12,0.00
2013-1-3,30.8,24.6,16.9,20.7,16.1,11.6,81,70,57,30.23,30.10,4,-635,10,0.00
2013-1-4,34.4,30.4,25.3,24.5,22.3,18.8,82,72,63,30.12,29.99,8,-699,14,0.00
2013-1-5,39.1,30.5,24.0,25.9,22.0,18.8,87,71,57,30.33,30.07,8,-642,15,0.00
2013-1-6,40.9,33.7,26.9,30.4,27.4,23.3,88,78,64,30.25,30.01,6,-666,10,0.00
2013-1-7,36.5,35.0,33.6,30.1,29.2,28.1,81,79,77,30.25,30.09,0,-999,0,0.00
2013-1-14,42.7,38.7,35.9,33.6,31.1,29.8,79,74,68,30.33,30.28,6,-836,9,0.07
2013-1-15,35.7,33.2,31.0,30.4,28.0,26.0,92,81,71,30.38,30.23,0,-999,0,0.09
2013-1-16,31.7,30.0,28.3,30.7,28.6,26.8,96,94,87,30.24,29.86,0,-999,0,0.74
2013-1-17,39.2,34.3,30.7,32.0,28.8,25.0,97,81,67,30.12,29.95,6,-631,12,0.00
2013-1-18,30.6,24.6,20.2,24.9,14.5,8.7,82,66,48,30.48,30.03,7,-604,14,0.00
2013-1-19,42.7,33.4,21.6,29.8,23.4,12.6,79,67,58,30.41,29.92,9,-508,18,0.00
2013-1-20,47.3,35.9,24.5,33.6,24.0,11.9,82,63,39,30.08,29.73,14,-536,18,0.00
2013-1-21,26.3,23.6,20.8,19.1,14.3,10.6,83,68,57,30.10,29.88,0,-999,0,0.00
2013-1-22,21.3,14.5,8.7,13.0,3.7,-3.1,81,62,46,30.25,29.88,10,-563,15,0.00
2013-1-23,12.7,8.3,6.8,4.4,1.2,-3.6,86,73,58,30.26,30.22,0,-726,0,0.00
2013-1-24,21.1,12.3,5.0,7.3,3.1,-0.9,87,68,46,30.49,30.17,11,-542,16,0.00
2013-1-25,19.5,13.2,8.3,12.0,5.5,-1.0,84,71,57,30.49,30.10,3,-743,5,0.02
2013-1-26,24.1,16.0,8.7,11.8,8.4,4.9,88,72,55,30.43,30.10,8,-586,14,0.00
2013-1-27,31.3,21.5,11.7,17.0,11.8,5.8,80,67,47,30.58,30.43,8,-498,12,0.00
2013-1-28,31.9,26.7,18.2,30.9,23.8,11.3,96,89,74,30.53,30.04,0,-999,0,0.22
2013-1-29,46.3,38.1,31.7,43.2,36.7,30.7,97,94,88,30.18,30.05,4,-535,7,0.08
2013-1-30,59.0,47.4,38.2,58.7,46.7,37.4,99,98,96,30.08,29.32,0,-999,0,0.60
2013-1-31,54.1,38.5,24.9,53.8,30.2,12.6,99,73,52,29.80,29.04,18,-547,27,1.53
2013-2-1,24.9,23.9,22.6,17.3,15.6,13.9,75,70,63,29.86,29.79,0,-999,0,0.00
2013-2-2,19.5,19.0,18.8,17.3,16.3,14.7,91,89,83,30.14,30.08,2,-485,5,0.05
2013-2-3,25.6,19.2,13.7,19.4,16.1,11.6,93,87,74,30.07,29.83,1,-704,3,0.00
2013-2-4,28.0,22.1,16.6,18.9,13.1,9.8,90,68,52,30.02,29.86,8,-520,14,0.00
2013-2-5,28.3,24.5,21.8,23.8,21.2,17.5,92,87,81,30.00,29.91,0,-999,0,0.01
2013-2-6,36.2,28.8,22.2,25.8,21.0,12.0,94,74,52,30.39,29.94,7,-522,15,0.00
2013-2-7,30.4,23.6,16.1,18.2,13.6,9.4,78,65,55,30.53,30.34,1,-565,3,0.00
2013-2-8,30.7,28.7,25.1,28.9,25.5,15.9,93,88,68,30.34,29.74,0,-999,0,0.22
2013-2-9,31.4,24.4,16.2,27.5,16.7,8.6,94,73,52,30.41,29.81,10,-500,16,0.06
2013-2-10,37.4,23.1,10.1,19.8,12.7,5.7,86,66,37,30.51,30.33,3,-522,5,0.00
2013-2-11,31.7,30.6,28.9,30.6,25.5,17.6,96,82,62,30.33,30.02,0,-999,0,0.21
2013-2-14,42.2,35.6,23.8,31.3,28.0,22.8,97,74,61,30.02,29.92,4,-253,9,0.00
2013-2-15,50.8,38.3,28.2,37.3,30.0,25.1,94,73,50,30.03,29.94,9,-497,16,0.07
2013-2-16,33.2,30.0,25.1,31.0,23.4,12.4,96,77,58,30.01,29.81,8,-573,12,0.01
2013-2-17,28.8,22.0,15.0,13.9,8.4,2.9,71,56,43,30.08,29.76,14,-500,26,0.00
2013-2-18,33.5,22.2,12.5,15.5,9.2,2.9,69,57,42,30.32,30.08,6,-530,10,0.00
2013-2-19,37.7,29.8,20.9,33.7,24.6,14.0,97,81,63,30.22,29.73,0,-999,0,0.28
2013-2-20,32.2,25.5,21.1,24.4,15.8,11.1,76,66,58,30.04,29.78,11,-466,16,0.00
2013-2-21,30.1,18.6,19.2,18.7,-12.3,-99.9,76,51,59,30.36,30.02,11,-480,21,0.00
2013-2-22,34.4,18.4,20.7,26.7,-27.1,-99.9,83,43,65,30.44,30.27,2,-483,5,0.00
2013-2-23,37.7,16.6,34.7,36.9,-38.4,-99.9,97,44,96,30.28,29.85,0,-999,0,0.03
2013-2-24,-200.0,0.0,200.0,-99.9,-99.9,-99.9,0,0,100,29.86,29.84,0,-999,0,0.00
2013-2-26,40.9,32.1,32.6,32.2,13.0,-99.9,90,68,67,30.26,29.88,0,-999,0,0.04
2013-2-27,45.0,22.7,37.1,43.9,-23.3,-99.9,98,50,82,29.89,29.53,8,-651,10,0.08
2013-2-28,45.1,25.5,33.0,37.9,-14.3,-99.9,92,49,59,29.66,29.57,6,-472,9,0.00
2013-3-1,40.5,22.7,32.1,31.8,-20.7,-99.9,79,45,67,29.83,29.64,7,-514,13,0.00
2013-3-2,35.0,18.9,27.4,25.8,-25.6,-99.9,77,43,66,29.83,29.75,7,-584,12,0.00
2013-3-3,34.3,18.4,25.5,23.0,-25.8,-99.9,71,41,60,29.83,29.74,9,-537,20,0.00
2013-3-4,38.1,21.0,26.2,24.1,-22.9,-99.9,73,39,53,29.98,29.82,9,-466,22,0.00
2013-3-5,45.1,24.3,28.9,29.8,-18.4,-99.9,76,41,50,30.06,29.97,6,-481,9,0.00
2013-3-6,37.3,18.8,34.4,35.5,-32.0,-99.9,94,43,71,30.01,29.89,0,-999,0,0.01
2013-3-7,41.9,22.1,31.1,32.1,-22.1,-99.9,90,45,58,30.14,30.00,9,-480,14,0.00
2013-3-8,40.5,24.0,27.2,31.7,-10.5,-99.9,93,55,69,30.27,30.07,10,-684,14,0.03
2013-3-9,56.9,40.9,28.1,34.3,25.8,21.5,77,57,30,30.34,30.25,4,-448,9,0.00
2013-3-10,54.8,40.5,26.3,36.4,29.3,22.4,86,66,40,30.38,30.27,5,-450,12,0.00
2013-3-11,53.3,43.0,33.0,47.1,38.6,29.8,97,85,58,30.33,30.06,7,-581,10,0.00
2013-3-12,55.6,49.9,40.9,55.0,47.5,36.4,98,92,81,30.05,29.68,6,-751,15,1.58
2013-3-13,48.2,39.1,31.9,36.6,30.4,22.5,91,72,47,29.92,29.82,12,-445,16,0.00
2013-3-14,39.0,31.0,25.3,21.9,15.6,10.2,71,54,35,30.01,29.89,13,-512,24,0.00
2013-3-15,42.4,34.1,24.2,31.7,22.7,13.9,71,63,53,30.02,29.74,8,-458,16,0.00
2013-3-16,38.0,31.3,27.6,29.0,25.2,20.6,92,79,62,29.95,29.80,0,-657,0,0.11
2013-3-17,33.9,29.2,23.7,27.4,20.8,16.4,92,72,56,30.34,29.95,6,-524,14,0.00
2013-3-18,31.9,26.9,21.3,25.3,19.1,12.8,93,73,55,30.42,30.01,0,-999,0,0.44
2013-3-19,43.4,33.6,27.2,35.7,29.5,18.8,96,86,55,30.01,29.72,8,-534,14,0.18
2013-3-20,41.4,33.2,27.3,25.8,21.8,18.5,74,63,48,29.92,29.81,10,-434,14,0.00
2013-3-21,36.8,29.7,25.7,24.8,18.0,13.1,77,62,46,29.87,29.67,7,-459,10,0.00
2013-3-22,37.6,30.6,23.3,25.0,20.3,13.3,78,66,53,29.93,29.76,8,-445,16,0.00
2013-3-23,42.0,34.7,29.3,26.1,22.0,20.1,71,60,46,29.98,29.89,11,-457,18,0.00
2013-3-24,44.8,36.4,27.7,27.3,23.3,18.8,71,59,46,29.99,29.72,6,-454,12,0.00
2013-3-25,39.1,35.0,31.3,33.9,28.5,24.7,93,77,64,29.73,29.50,0,-999,0,0.04
2013-3-26,50.2,39.2,31.6,34.5,30.3,27.3,90,72,44,29.91,29.64,17,-451,17,0.00
2013-3-27,49.8,38.8,29.2,32.8,28.4,22.9,85,67,41,30.04,29.91,7,-473,24,0.00
2013-3-28,45.8,39.5,32.0,33.8,30.3,27.3,86,70,56,30.16,30.00,8,-472,16,0.00
2013-3-29,51.6,42.1,33.9,34.2,30.3,27.5,82,64,45,30.18,30.11,7,-463,14,0.00
2013-3-30,57.1,43.0,29.3,32.4,27.4,22.6,89,58,28,30.21,30.09,6,-464,11,0.00
2013-3-31,56.0,42.0,30.3,41.5,32.3,21.6,97,70,44,30.14,29.72,7,-614,13,0.19
2013-4-1,56.1,43.6,32.4,48.7,34.9,14.4,98,74,39,29.95,29.66,13,-464,17,0.01
2013-4-2,41.5,33.0,25.3,22.6,16.7,13.2,74,52,37,30.13,29.95,11,-465,17,0.00
2013-4-3,44.7,34.3,27.1,22.4,16.0,12.8,63,48,34,30.36,30.12,8,-467,19,0.00
2013-4-4,51.5,38.7,25.6,29.2,21.8,15.8,69,52,38,30.42,30.09,8,-455,15,0.00
2013-4-5,60.6,45.5,32.5,33.8,26.9,22.2,79,50,29,30.09,29.77,10,-468,18,0.00
2013-4-6,51.6,40.1,29.7,24.1,19.4,15.6,66,45,26,30.32,30.05,11,-443,14,0.00
2013-4-7,60.9,47.8,35.1,42.8,34.4,21.0,76,61,44,30.30,29.99,10,-465,18,0.00
2013-4-8,74.5,59.0,41.7,50.9,44.7,38.2,90,62,34,30.10,29.96,4,-456,11,0.00
2013-4-9,80.8,67.8,57.4,54.6,48.2,41.2,78,53,28,30.00,29.89,7,-464,12,0.00
2013-4-10,79.6,63.7,51.0,60.8,53.6,42.9,99,72,50,29.95,29.78,8,-472,23,1.15
2013-4-11,58.7,52.2,40.3,58.4,47.7,34.4,99,85,67,30.02,29.79,5,-506,10,0.00
2013-4-12,42.3,40.1,38.2,40.6,38.0,33.5,97,93,81,30.00,29.74,0,-999,0,0.64
2013-4-13,56.7,46.4,36.3,42.1,37.6,34.9,98,74,52,29.98,29.79,7,-413,12,0.00
2013-4-14,56.4,48.3,42.5,38.4,34.0,29.5,74,58,40,30.22,29.97,8,-460,13,0.00
2013-4-15,62.0,48.7,38.1,44.3,35.8,29.8,79,62,47,30.37,30.22,4,-410,11,0.00
2013-4-16,66.2,56.3,44.2,57.0,49.3,36.8,86,78,69,30.36,30.10,9,-446,15,0.00
2013-4-17,68.9,58.4,49.1,56.7,42.6,35.7,94,59,31,30.30,30.13,6,-441,10,0.02
2013-4-18,55.8,50.6,42.3,54.4,44.0,36.1,96,79,54,30.32,30.08,0,-975,0,0.05
2013-4-19,74.0,63.0,50.5,66.2,59.4,46.3,97,89,73,30.08,29.58,11,-572,18,0.88
2013-4-20,56.0,48.2,39.4,47.2,36.1,23.9,94,65,42,30.35,29.70,11,-472,18,0.07
2013-4-21,53.3,41.7,31.4,32.4,26.0,21.1,71,55,35,30.63,30.35,5,-480,9,0.00
2013-4-22,54.9,43.0,31.0,39.2,31.2,25.3,85,64,48,30.66,30.50,4,-476,9,0.00
2013-4-23,48.1,42.0,36.3,40.7,35.8,31.4,92,79,69,30.50,30.16,4,-477,9,0.00
2013-4-24,70.1,54.1,33.5,55.9,46.9,32.0,97,78,56,30.16,29.80,7,-451,21,0.03
2013-4-25,62.1,51.6,40.6,54.5,34.0,27.4,85,53,28,30.28,29.90,9,-461,18,0.01
2013-4-26,62.9,50.5,38.8,39.6,33.6,27.3,82,55,27,30.44,30.28,5,-479,9,0.00
2013-4-27,68.6,52.7,35.2,44.4,36.1,29.6,83,56,31,30.46,30.28,5,-464,8,0.00
2013-4-28,69.9,55.8,38.9,48.0,40.3,34.8,89,59,40,30.32,30.17,5,-477,11,0.00
2013-4-29,53.8,50.9,49.7,49.8,47.3,38.0,96,88,55,30.24,30.17,1,-971,1,0.07
2013-4-30,67.0,54.8,42.5,51.2,43.9,28.8,96,70,36,30.34,30.20,4,-467,9,0.01
2013-5-1,70.8,52.9,35.1,46.2,36.4,28.0,85,57,27,30.49,30.34,3,-476,6,0.00
2013-5-2,75.0,56.2,37.8,50.9,43.0,36.2,96,66,34,30.48,30.33,5,-483,9,0.00
2013-5-3,67.4,55.7,43.7,47.7,39.9,33.3,86,57,31,30.45,30.33,4,-484,7,0.00
2013-5-4,71.4,54.3,38.6,50.2,42.7,36.9,96,69,39,30.37,30.20,4,-484,9,0.00
2013-5-5,69.0,50.7,36.5,48.5,40.9,34.9,96,73,35,30.30,30.19,3,-476,9,0.00
2013-5-6,70.1,54.1,37.5,56.2,47.1,35.9,96,79,56,30.27,30.13,3,-482,9,0.00
2013-5-7,66.3,50.8,46.3,53.9,48.5,45.2,98,92,62,30.18,30.13,0,-930,0,0.00
2013-5-10,76.4,70.4,60.5,64.6,60.3,56.7,94,71,51,30.02,29.89,2,-105,6,0.06
2013-5-11,68.4,62.2,55.0,65.6,60.7,54.2,99,95,85,29.92,29.70,3,-584,7,0.30
2013-5-12,63.7,55.4,43.7,54.5,42.6,31.2,97,64,37,29.96,29.69,10,-468,15,0.00
2013-5-13,52.3,44.1,34.4,35.8,32.5,28.8,92,65,45,30.15,29.95,6,-454,15,0.00
2013-5-14,59.0,45.5,31.8,39.2,32.0,26.2,93,64,32,30.17,30.04,5,-478,12,0.00
2013-5-15,70.5,55.5,38.6,59.0,47.9,33.0,93,76,64,30.09,29.69,4,-497,18,0.00
2013-5-16,79.7,65.9,51.3,62.5,53.1,43.1,98,68,34,29.87,29.73,3,-480,7,0.00
2013-5-17,71.5,60.0,49.7,52.7,44.6,41.1,79,58,37,30.22,29.87,4,-464,10,0.00
2013-5-18,62.0,54.7,47.7,55.7,49.8,43.1,97,84,60,30.31,30.22,0,-964,0,0.07
2013-5-19,59.0,55.9,53.9,57.4,55.0,53.3,99,97,92,30.31,30.17,0,-999,0,0.10
2013-5-20,77.3,65.1,55.5,69.5,61.7,55.0,100,89,71,30.19,29.97,1,-496,4,0.00
2013-5-21,85.7,71.6,59.8,74.4,66.8,58.4,98,86,63,29.99,29.83,3,-483,10,0.00
2013-5-22,83.3,72.9,63.8,74.9,68.8,62.9,98,88,71,29.91,29.79,7,-507,13,0.00
2013-5-23,76.1,67.1,61.7,72.1,65.2,59.8,98,94,82,29.88,29.75,4,-499,10,1.24
2013-5-24,62.3,51.0,42.8,60.8,48.6,39.8,97,91,82,30.01,29.70,0,-951,0,0.23
2013-5-25,54.9,48.0,41.7,44.0,40.1,36.7,95,75,55,30.06,29.96,12,-581,17,0.49
2013-5-26,65.4,53.3,43.6,45.8,39.1,35.9,81,61,39,30.23,30.02,7,-478,16,0.00
2013-5-27,73.4,56.1,37.1,50.5,42.0,34.4,94,63,32,30.28,30.14,3,-498,7,0.00
2013-5-28,55.5,52.9,46.2,55.0,50.9,43.7,99,93,77,30.24,30.14,0,-962,0,0.52
2013-5-29,81.1,67.2,55.3,73.3,62.9,55.0,100,87,67,30.15,30.01,2,-494,5,0.01
2013-5-30,88.3,75.3,64.0,74.5,66.3,62.1,97,76,46,30.15,30.07,2,-499,10,0.00
2013-5-31,88.8,75.5,64.1,75.3,66.0,58.0,97,75,49,30.13,29.99,2,-476,8,0.00
2013-6-1,86.9,74.9,62.0,74.7,67.8,60.3,98,80,61,30.03,29.89,2,-487,6,0.00
2013-6-2,84.6,75.6,70.1,73.9,69.1,66.5,94,81,62,29.91,29.76,4,-470,6,0.01
2013-6-3,70.7,69.9,69.4,68.9,68.4,67.6,95,95,94,29.82,29.81,0,-555,0,0.00
2013-6-7,59.0,58.2,57.2,58.7,57.9,56.9,99,99,99,29.71,29.67,0,-999,0,2.42
2013-6-8,72.7,64.4,56.2,65.7,61.1,55.9,100,90,74,30.08,29.66,1,-525,4,0.40
2013-6-9,78.9,65.3,54.4,66.7,59.6,52.9,98,83,54,30.19,30.08,2,-486,6,0.00
2013-6-10,64.4,62.7,61.3,63.5,61.3,58.7,99,95,90,30.17,29.80,0,-952,0,1.61
2013-6-11,75.2,67.6,61.2,69.6,64.3,60.5,100,90,73,29.80,29.66,6,-533,12,0.14
2013-6-12,77.0,66.8,59.0,62.9,58.3,53.9,91,75,53,29.86,29.73,4,-470,11,0.00
2013-6-13,61.8,58.5,54.1,60.9,57.4,53.3,98,96,91,29.85,29.47,0,-959,0,1.32
2013-6-14,54.0,53.4,52.8,53.2,52.6,52.1,98,97,97,29.61,29.58,0,-999,0,0.06
2013-6-16,74.8,72.1,68.0,66.7,65.5,63.6,87,80,72,29.88,29.79,1,0,9,0.00
2013-6-17,84.1,71.6,61.0,70.3,63.3,57.7,97,77,44,29.93,29.84,4,-499,7,0.00
2013-6-18,78.7,66.7,58.2,70.7,62.9,56.8,96,88,65,29.93,29.81,1,-528,4,0.92
2013-6-19,74.0,62.1,54.8,59.5,54.7,49.8,97,79,46,30.18,29.91,6,-530,6,0.00
2013-6-20,77.8,64.8,50.5,63.3,56.1,47.9,95,75,47,30.28,30.18,3,-470,10,0.00
2013-6-21,79.8,67.5,55.0,67.8,59.5,52.4,94,77,58,30.31,30.23,2,-511,9,0.00
2013-6-22,80.7,68.5,54.9,70.6,62.7,53.2,97,83,66,30.27,30.12,2,-514,6,0.00
2013-6-23,74.7,67.6,64.8,70.5,64.7,62.6,96,91,85,30.20,30.16,0,-900,1,0.00
2013-6-26,81.0,76.4,68.6,73.4,69.8,65.5,91,80,72,29.84,29.80,1,0,4,0.00
2013-6-27,83.6,72.2,63.9,74.5,68.2,62.4,98,88,66,29.83,29.51,4,-552,12,1.60
2013-6-28,82.1,72.7,66.3,73.3,69.3,64.5,98,90,68,29.55,29.46,5,-549,10,0.48
2013-6-29,81.1,49.1,64.0,71.2,12.3,-99.9,99,55,65,29.70,29.49,3,-505,9,0.00
2013-6-30,80.8,44.4,65.2,75.2,-0.1,-99.9,97,50,78,29.91,29.70,2,-523,12,0.00
2013-7-1,74.5,36.6,69.1,74.2,-13.2,-99.9,99,49,96,30.03,29.88,1,-662,8,0.11
2013-7-2,80.7,51.0,71.8,75.9,16.1,-99.9,98,61,81,30.17,30.02,2,-558,8,0.12
2013-7-3,80.1,74.7,70.4,75.9,72.2,69.2,97,92,84,30.24,30.15,1,-547,5,0.01
2013-7-4,85.5,77.3,71.0,78.1,73.4,69.7,98,88,74,30.25,30.14,2,-466,9,0.00
2013-7-5,88.0,78.9,71.6,78.4,73.7,70.1,97,85,67,30.21,30.09,1,-489,8,0.00
2013-7-6,88.4,78.8,72.9,79.0,73.8,71.3,96,85,66,30.15,30.03,2,-555,3,0.00
2013-7-7,89.2,78.5,70.7,81.0,72.9,66.0,97,84,66,30.07,29.94,6,-482,11,0.00
2013-7-8,84.9,74.0,66.4,74.5,68.5,64.9,97,84,61,30.06,29.97,2,-576,5,0.00
2013-7-9,82.9,73.2,65.7,75.9,69.5,63.9,97,89,73,30.08,29.99,3,-475,6,0.05
2013-7-10,82.1,75.0,68.5,76.8,71.9,67.3,98,91,76,30.02,29.82,3,-445,10,0.05
2013-7-11,79.8,73.5,66.4,72.6,68.7,61.4,93,85,70,29.95,29.80,0,-520,1,0.00
2013-7-12,76.6,69.5,65.2,70.6,65.8,60.8,97,88,79,30.10,29.94,0,-538,0,0.12
2013-7-13,76.6,69.1,63.9,74.4,68.0,63.0,99,96,92,30.29,30.10,0,-722,0,0.06
2013-7-14,87.7,78.0,71.6,78.8,73.2,70.6,99,86,63,30.36,30.25,0,-596,3,0.00
2013-7-15,91.0,78.5,70.1,79.7,73.3,68.9,98,85,64,30.26,30.15,1,-564,5,0.00
2013-7-16,89.1,77.0,67.8,77.5,70.5,65.7,96,82,58,30.24,30.14,1,-609,3,0.00
2013-7-17,90.6,77.9,68.4,77.6,71.5,66.9,97,82,53,30.22,30.06,0,-535,0,0.00
2013-7-18,92.7,80.3,71.1,79.3,74.1,69.3,97,83,53,30.08,29.97,3,-496,5,0.00
2013-7-19,92.3,81.4,71.3,81.1,75.1,70.1,98,82,59,29.98,29.79,2,-499,9,0.00
2013-7-20,89.0,78.6,72.9,79.0,72.5,68.7,94,82,62,29.85,29.74,7,-487,10,0.00
2013-7-21,83.9,75.2,69.0,73.0,69.3,65.4,97,83,59,29.97,29.84,0,-465,0,0.01
2013-7-22,83.9,73.0,68.1,76.8,70.2,66.0,98,91,74,29.97,29.80,3,-506,10,0.48
2013-7-23,83.1,74.2,69.3,76.8,71.7,68.1,99,92,73,29.80,29.58,2,-536,3,1.23
2013-7-24,75.7,68.7,59.9,68.3,63.2,52.8,97,83,61,29.97,29.64,2,-489,6,0.00
2013-7-25,69.6,61.6,56.3,62.2,56.0,51.6,88,82,74,30.08,29.96,0,-555,0,0.00
2013-7-26,79.4,67.2,57.7,66.8,60.3,56.0,95,80,55,30.06,30.01,0,-499,0,0.00
2013-7-27,80.4,68.1,57.0,70.2,63.0,55.9,98,85,66,30.06,29.93,1,-501,6,0.00
2013-7-28,73.9,67.9,64.4,71.9,66.3,62.0,98,95,86,30.00,29.90,0,-544,0,1.11
2013-7-29,78.9,68.0,59.7,67.7,61.5,56.0,98,82,51,30.13,29.97,0,-497,3,0.02
2013-7-30,76.9,37.1,58.1,65.2,-14.4,-99.9,97,39,58,30.20,30.12,3,-489,3,0.00
2013-7-31,78.0,36.4,59.0,68.0,-17.0,-99.9,98,39,61,30.17,30.03,3,-537,6,0.00
2013-8-1,-200.0,0.0,200.0,-99.9,-99.9,-99.9,0,0,100,30.04,29.83,0,-999,0,0.00
2013-8-2,79.4,33.2,63.8,69.0,-25.0,-99.9,99,35,61,29.93,29.84,1,-512,5,0.00
2013-8-3,75.2,23.8,63.9,69.8,-44.2,-99.9,96,29,80,29.92,29.84,2,-522,11,0.11
2013-8-4,75.3,34.7,60.1,64.8,-20.3,-99.9,97,36,59,30.01,29.88,2,-595,10,0.01
2013-8-5,74.3,33.1,59.9,61.4,-25.0,-99.9,87,31,50,30.09,29.99,1,-547,5,0.00
2013-8-6,77.1,34.1,59.0,65.4,-23.0,-99.9,96,34,55,30.12,30.04,2,-572,7,0.00
2013-8-7,69.1,4.8,65.8,66.1,-88.3,-99.9,97,6,89,30.13,30.05,2,-574,5,0.00
2013-8-8,70.0,2.6,69.1,69.4,-93.6,-99.9,98,4,98,30.06,29.99,0,-708,0,0.00
2013-8-9,82.8,27.6,73.6,77.5,-37.6,-99.9,100,33,83,30.01,29.80,2,-617,5,0.27
2013-8-10,79.9,36.3,64.3,69.8,-17.7,-99.9,98,39,62,30.07,29.89,0,-508,3,0.01
2013-8-11,75.7,34.7,57.6,66.8,-19.4,-99.9,95,38,65,30.14,30.03,1,-530,4,0.00
2013-8-12,78.9,35.2,64.4,69.4,-20.6,-99.9,96,37,56,30.05,29.92,0,-510,0,0.00
2013-8-13,77.3,28.6,66.9,71.6,-33.9,-99.9,99,34,78,29.93,29.69,1,-495,7,0.00
2013-8-14,70.6,31.5,56.2,59.3,-25.6,-99.9,81,33,61,30.08,29.80,4,-477,12,0.00
2013-8-15,73.7,31.6,54.4,60.4,-26.4,-99.9,98,33,52,30.17,30.07,1,-486,6,0.00
2013-8-16,76.2,34.1,54.8,63.9,-20.5,-99.9,99,37,50,30.21,30.13,0,-510,3,0.00
2013-8-17,78.2,34.5,56.4,66.2,-19.7,-99.9,98,39,53,30.30,30.21,0,-491,1,0.00
2013-8-18,69.9,35.2,61.0,66.8,-14.5,-99.9,98,47,80,30.27,30.14,0,-999,0,0.00
2013-8-19,73.6,36.2,60.4,67.4,-15.2,-99.9,99,43,74,30.15,30.05,2,-520,5,0.00
2013-8-20,82.4,36.2,61.2,72.0,-19.5,-99.9,98,38,62,30.15,30.07,0,-526,6,0.00
2013-8-21,82.9,36.1,64.4,72.1,-21.1,-99.9,99,36,57,30.19,30.06,0,-478,3,0.00
2013-8-22,70.1,2.8,69.3,69.8,-93.0,-99.9,99,4,98,30.07,29.89,2,-594,3,0.00
2013-8-23,76.5,32.8,65.2,66.1,-25.8,-99.9,95,33,57,30.13,29.92,1,-483,7,0.00
2013-8-24,75.9,34.3,56.7,64.6,-20.7,-99.9,93,35,51,30.36,30.13,0,-500,1,0.00
2013-8-25,77.8,35.3,55.2,64.4,-20.9,-99.9,98,34,50,30.42,30.24,2,-494,6,0.00
2013-8-26,78.1,29.5,64.0,71.6,-32.5,-99.9,91,33,75,30.24,29.92,2,-512,5,0.00
2013-8-27,82.7,35.2,67.7,72.9,-22.2,-99.9,98,37,65,29.92,29.85,0,-494,1,0.00
2013-8-28,68.1,3.5,66.5,67.5,-91.5,-99.9,98,5,98,29.91,29.86,0,-999,0,0.00
2013-8-29,77.8,34.3,67.8,73.2,-20.3,-99.9,99,42,78,30.03,29.91,0,-590,0,0.00
2013-8-30,80.4,35.1,67.4,74.2,-20.5,-99.9,97,40,78,30.03,29.85,3,-535,8,0.00
2013-8-31,82.6,34.6,70.6,76.6,-22.2,-99.9,98,40,80,29.87,29.78,0,-620,0,0.00
2013-9-1,80.2,26.4,73.1,76.0,-41.1,-99.9,98,30,81,29.84,29.78,0,-591,3,0.00
2013-9-2,79.4,27.6,70.7,74.5,-36.1,-99.9,99,34,82,29.80,29.70,0,-605,2,0.22
2013-9-3,77.2,30.5,65.3,66.1,-30.4,-99.9,98,32,56,29.92,29.73,0,-482,0,0.00
2013-9-4,78.7,35.0,58.0,63.5,-21.4,-99.9,96,34,51,30.02,29.91,1,-490,4,0.00
2013-9-5,73.3,31.7,57.3,62.5,-27.0,-99.9,95,31,45,30.18,29.94,2,-495,8,0.00
2013-9-6,68.4,29.8,51.2,53.2,-28.2,-99.9,89,30,43,30.28,30.14,0,-488,0,0.00
2013-9-7,75.3,41.0,52.2,60.0,-3.5,-99.9,98,44,51,30.15,29.91,1,-490,4,0.00
2013-9-8,78.0,64.2,54.2,66.8,57.5,47.6,96,80,50,30.11,29.84,3,-489,8,0.00
2013-9-9,70.8,58.6,46.0,61.4,52.9,43.5,93,82,63,30.26,30.11,2,-507,6,0.00
2013-9-10,83.3,72.3,63.7,76.0,69.1,60.5,98,90,76,30.17,30.06,2,-520,6,0.00
2013-9-11,90.3,77.8,69.1,80.6,73.9,67.9,99,89,69,30.13,29.98,1,-494,8,0.00
2013-9-12,77.5,68.7,66.3,71.9,66.5,64.7,96,93,80,29.99,29.69,3,-579,11,0.28
2013-9-13,72.3,63.5,54.8,65.1,58.9,48.9,97,86,63,29.89,29.66,4,-535,15,0.15
2013-9-14,59.0,53.8,47.3,50.7,47.3,43.3,86,79,70,30.17,29.89,3,-588,6,0.00
2013-9-15,68.4,53.5,40.1,55.5,47.8,38.2,96,83,55,30.25,30.10,2,-487,7,0.00
2013-9-16,68.8,58.1,51.6,58.1,53.3,46.2,97,85,61,30.28,30.06,2,-476,9,0.05
2013-9-17,62.5,50.2,40.4,48.5,43.2,37.7,95,78,50,30.46,30.28,2,-527,2,0.00
2013-9-18,67.9,50.3,38.0,53.4,44.4,36.6,97,83,46,30.38,30.21,0,-538,3,0.00
2013-9-19,73.1,54.8,41.3,58.7,49.2,40.2,97,84,53,30.22,30.09,1,-492,6,0.00
2013-9-20,76.8,59.5,46.1,63.8,54.8,45.0,98,86,56,30.11,29.99,0,-484,5,0.00
2013-9-21,74.3,61.6,49.9,63.1,56.5,48.5,98,85,58,30.02,29.68,4,-519,10,0.50
2013-9-22,59.6,57.1,52.4,58.2,55.9,50.7,96,95,94,29.78,29.68,0,-999,0,0.13
2013-9-28,71.1,58.8,50.8,58.7,51.9,48.6,93,79,57,30.29,30.26,0,-217,1,0.00
2013-9-29,69.0,55.6,46.3,58.1,51.0,44.7,97,85,62,30.26,30.09,0,-571,3,0.00
2013-9-30,72.0,55.6,45.6,56.6,50.1,44.0,97,83,51,30.11,30.00,1,-554,3,0.00
2013-10-1,76.0,59.8,47.4,64.3,54.7,46.0,98,84,63,30.05,29.93,1,-548,4,0.00
2013-10-2,82.5,63.8,50.1,66.5,57.7,48.7,99,82,51,30.05,29.94,4,-516,9,0.00
2013-10-3,75.6,63.1,51.5,62.9,57.4,49.5,97,83,57,30.15,30.05,0,-546,3,0.00
2013-10-4,84.3,66.9,56.7,73.9,63.0,55.4,99,88,58,30.08,29.98,2,-536,6,0.15
2013-10-5,63.3,62.8,62.6,61.5,61.0,60.8,95,94,93,30.05,30.03,0,-999,0,0.00
2013-10-6,67.3,66.1,63.7,65.8,64.9,62.5,98,96,95,30.08,30.00,0,-999,0,0.17
2013-10-7,71.3,63.3,53.9,69.8,61.4,47.2,98,94,75,30.00,29.71,0,-999,0,0.57
2013-10-8,65.4,43.1,47.1,51.9,16.6,-99.9,91,61,55,30.35,30.00,2,-526,7,0.01
2013-10-9,44.4,0.5,44.4,42.2,-98.6,-99.9,92,1,92,30.42,30.32,0,-999,0,0.00
2013-10-10,48.3,0.5,48.2,44.0,-98.6,-99.9,85,1,85,30.32,30.10,0,-999,0,0.00
2013-10-11,54.8,0.6,54.8,47.7,-98.5,-99.9,77,1,77,30.12,30.04,0,-999,0,0.00
2013-10-12,-200.0,0.0,200.0,-99.9,-99.9,-99.9,0,0,100,30.10,30.09,0,-999,0,0.00
2013-11-8,-200.0,0.0,200.0,-99.9,-99.9,-99.9,0,0,100,30.25,30.11,5,-376,13,0.00
2013-11-9,48.3,7.3,30.7,33.5,-79.2,-99.9,89,9,50,30.31,29.99,6,-604,13,0.00
2013-11-10,57.1,9.5,37.5,39.6,-74.7,-99.9,81,11,49,30.09,29.85,9,-514,18,0.00
2013-11-11,49.6,11.7,37.4,34.9,-65.7,-99.9,68,16,54,30.23,29.97,7,-610,14,0.00
2013-11-12,31.8,0.6,31.6,23.5,-97.6,-99.9,71,1,70,30.30,29.96,0,-999,0,0.00
2013-11-13,36.4,11.0,24.0,19.6,-60.0,-99.9,70,18,46,30.43,30.29,10,-530,14,0.00
2013-11-14,51.7,15.2,27.2,25.6,-56.9,-99.9,74,16,30,30.29,30.18,7,-510,12,0.00
2013-11-15,53.5,14.6,34.4,31.9,-61.0,-99.9,74,14,35,30.26,30.17,5,-557,9,0.00
2013-11-16,-200.0,0.0,200.0,-99.9,-99.9,-99.9,0,0,100,30.29,30.25,0,-999,0,0.00
2013-11-20,43.3,13.8,38.5,23.2,-60.9,-99.9,48,12,31,30.64,30.56,3,-306,5,0.00
2013-11-21,47.3,12.6,24.6,36.0,-58.4,-99.9,74,21,56,30.63,30.41,4,-548,7,0.00
2013-11-22,53.2,9.1,46.0,48.1,-73.7,-99.9,94,15,82,30.41,29.94,4,-649,10,0.00
2013-11-23,44.1,13.3,32.6,27.1,-57.1,-99.9,73,20,46,30.11,29.94,9,-532,15,0.00
2013-11-24,26.1,14.4,18.1,10.9,-28.8,-99.9,62,35,47,30.43,30.07,12,-540,23,0.00
2013-11-25,32.9,24.8,17.2,18.3,12.9,7.1,74,61,53,30.52,30.34,5,-557,14,0.00
2013-11-26,32.3,30.3,28.3,31.3,24.1,15.9,96,79,58,30.35,29.76,0,-999,0,0.87
2013-11-27,42.7,35.6,29.0,42.2,33.2,18.0,98,91,63,29.82,29.44,0,-999,0,1.30
2013-11-28,31.6,26.8,22.2,20.0,15.8,12.4,77,63,48,30.49,29.82,9,-537,19,0.00
2013-11-29,35.0,27.2,20.7,23.6,19.4,13.1,84,73,58,30.77,30.48,4,-558,11,0.00
2013-11-30,31.1,24.7,16.3,25.7,17.8,11.1,86,75,57,30.78,30.42,1,-555,4,0.00
2013-12-1,29.4,27.3,23.3,25.4,23.6,20.0,87,86,84,30.42,30.28,0,-999,0,0.00
2013-12-6,37.8,35.5,33.3,34.6,33.3,31.8,95,92,87,30.20,30.06,0,-999,0,0.58
2013-12-7,36.0,31.1,25.4,31.9,26.2,18.1,95,82,69,30.57,30.13,6,-536,13,0.02
2013-12-8,27.6,24.6,20.7,24.2,19.0,15.0,93,79,70,30.62,30.40,0,-999,0,0.04
2013-12-9,32.3,30.1,25.9,31.4,29.0,24.2,97,96,93,30.40,30.01,0,-999,0,0.14
2013-12-10,31.2,30.4,29.4,30.4,29.5,28.4,97,96,95,30.05,29.92,0,-999,0,0.05
2013-12-12,-200.0,0.0,200.0,-99.9,-99.9,-99.9,0,0,100,30.22,30.18,0,-999,0,0.00
2013-12-13,32.7,15.8,23.4,20.4,-32.6,-99.9,80,38,58,30.36,30.14,7,-553,11,0.00
2013-12-14,24.7,18.9,14.2,19.4,15.4,11.8,91,86,79,30.50,29.86,0,-999,0,0.40
2013-12-15,35.3,27.8,15.3,30.8,23.5,13.1,95,84,71,29.87,29.61,8,-579,20,0.51
2013-12-16,28.4,21.1,9.3,22.3,11.5,3.7,79,66,52,30.25,29.86,6,-530,13,0.00
2013-12-17,16.8,6.9,9.4,14.4,-46.6,-99.9,90,41,77,30.25,29.99,0,-999,0,0.01
2013-12-18,33.3,6.1,25.7,24.3,-75.5,-99.9,85,14,66,30.20,29.99,9,-545,14,0.00
2013-12-19,37.4,3.9,17.5,26.4,-86.2,-99.9,87,7,63,30.19,30.06,5,-543,9,0.00
2013-12-20,44.5,4.3,35.5,32.4,-87.2,-99.9,77,7,62,30.14,29.99,4,-531,10,0.00
2013-12-21,50.7,0.5,50.7,43.4,-98.6,-99.9,76,1,76,30.02,29.89,4,-586,7,0.00
2013-12-22,59.8,0.8,59.6,58.9,-97.8,-99.9,97,1,97,29.97,29.77,7,-615,16,0.00
2013-12-23,-200.0,0.0,200.0,-99.9,-99.9,-99.9,0,0,100,30.17,29.91,0,-999,0,0.00
2013-12-24,33.9,3.7,28.0,24.3,-85.8,-99.9,75,8,66,30.40,30.14,8,-535,14,0.00
2013-12-25,24.5,4.2,14.5,11.4,-78.2,-99.9,71,12,55,30.56,30.40,3,-576,6,0.00
2013-12-26,30.0,1.5,22.6,26.2,-94.3,-99.9,87,4,84,30.44,30.18,4,-721,7,0.00
2013-12-27,28.8,0.5,27.5,21.9,-97.7,-99.9,77,1,75,30.38,30.29,5,-589,8,0.00
2013-12-28,48.4,7.5,36.0,31.9,-78.2,-99.9,67,9,51,30.31,30.08,7,-587,12,0.00
2013-12-29,-200.0,0.0,200.0,-99.9,-99.9,-99.9,0,0,100,30.09,29.57,0,-999,0,0.00
2014-1-1,29.0,27.2,24.7,21.2,20.2,17.0,84,75,66,30.37,30.26,2,-315,5,0.00
2014-1-2,24.7,17.7,11.2,20.9,14.4,8.8,90,87,83,30.26,29.75,0,-999,0,0.17